Hourly Data Report for October 04, 2017

All times are specified in Local Standard Time (LST). Add 1 hour to adjust for Daylight Saving Time where and when it is observed.

TUKTOYAKTUK
NORTHWEST TERRITORIES

69°26'00.000" N
133°01'00.000" W
4.60 m
2203914
71985
ZUB

Download Data

Hourly Data (October 2017)
Hourly Data Report for October 4, 2017
Temp Definition
°C
Dew Point Temp Definition
°C
Rel Hum Definition
%
Wind Dir Definition
10's deg

Wind Spd Definition
km/h
Visibility Definition
km
Stn Press Definition
kPa
Hmdx Definition


Wind Chill Definition


Weather Definition


TIME
00:00 0.8 -0.2 93 LegendMM LegendMM   101.75     LegendNANA
01:00 0.9 0.0 93 LegendMM LegendMM   101.74     LegendNANA
02:00 0.6 -0.4 93 LegendMM LegendMM   101.75     LegendNANA
03:00 0.9 0.0 94 LegendMM LegendMM   101.78     LegendNANA
04:00 0.9 0.0 94 LegendMM LegendMM   101.74     LegendNANA
05:00 0.9 -0.1 93 LegendMM LegendMM   101.74     LegendNANA
06:00 0.5 -0.5 94 LegendMM LegendMM   101.71     LegendNANA
07:00 0.4 -0.3 95 LegendMM LegendMM   101.69     LegendNANA
08:00 0.0 -0.6 95 LegendMM LegendMM   101.73     LegendNANA
09:00 -0.1 -0.7 96 LegendMM LegendMM   101.68     LegendNANA
10:00 -0.1 -0.6 96 LegendMM LegendMM   101.67     LegendNANA
11:00 0.2 -0.3 96 LegendMM LegendMM   101.61     LegendNANA
12:00 1.2 0.5 95 LegendMM LegendMM   101.55     LegendNANA
13:00 1.2 0.2 93 LegendMM LegendMM   101.48     LegendNANA
14:00 1.4 0.4 93 LegendMM LegendMM   101.44     LegendNANA
15:00 1.5 0.4 93 LegendMM LegendMM   101.36     LegendNANA
16:00 1.9 0.4 90 LegendMM LegendMM   101.32     LegendNANA
17:00 1.5 0.3 92 LegendMM LegendMM   101.26     LegendNANA
18:00 1.6 0.4 92 LegendMM LegendMM   101.16     LegendNANA
19:00 1.7 0.6 92 LegendMM LegendMM   101.09     LegendNANA
20:00 1.9 0.4 89 LegendMM LegendMM   100.99     LegendNANA
21:00 1.9 -0.1 87 LegendMM LegendMM   100.91     LegendNANA
22:00 1.8 -0.2 87 LegendMM LegendMM   100.78     LegendNANA
23:00 2.0 0.0 87 LegendMM LegendMM   100.68     LegendNANA

Notes on Data Quality.

Legend

  • E = Estimated
  • M = Missing
  • NA = Not Available
  • ‡ = Partner data that is not subject to review by the National Climate Archives
Date modified: